4XHLK LLHA-LLIB

Flight info

Callsign 4XHLK
Flight time 0h 19m
Altitude 1200
Route SLA CVFR
Aircraft TL20/L-S/C

Departure

Time 2026-04-24 19:52
Airport Uri Michaeli Haifa International Airport (LLHA)

Arrival

Time 2026-04-24 20:11
Airport Rosh Pina Airport (LLIB)
Time Latitude Longitude Altitude Speed Heading
2026-04-24 19:36 32.81132 35.04216 22 ft 0 kts 340°
2026-04-24 19:49 32.81157 35.04238 22 ft 0 kts 69°
2026-04-24 19:50 32.81017 35.04366 23 ft 31 kts 159°
2026-04-24 19:50 32.80888 35.04428 23 ft 10 kts 313°
2026-04-24 19:51 32.81501 35.04153 145 ft 86 kts 340°
2026-04-24 19:51 32.82083 35.03883 363 ft 90 kts 340°
2026-04-24 19:52 32.82921 35.04108 678 ft 105 kts 77°
2026-04-24 19:52 32.83056 35.04984 715 ft 113 kts 93°
2026-04-24 19:52 32.82669 35.05759 877 ft 104 kts 120°
2026-04-24 19:52 32.82210 35.06461 906 ft 111 kts 123°
2026-04-24 19:53 32.81716 35.07199 824 ft 118 kts 123°
2026-04-24 19:53 32.81396 35.08049 867 ft 108 kts 90°
2026-04-24 19:53 32.81626 35.09759 970 ft 109 kts 72°
2026-04-24 19:54 32.81774 35.10636 996 ft 107 kts 74°
2026-04-24 19:54 32.81943 35.11493 1044 ft 108 kts 72°
2026-04-24 19:54 32.82120 35.12363 1081 ft 108 kts 72°
2026-04-24 19:54 32.82294 35.13222 1154 ft 106 kts 72°
2026-04-24 19:55 32.82405 35.13789 1230 ft 106 kts 72°
2026-04-24 19:55 32.82572 35.14911 1380 ft 103 kts 73°
2026-04-24 19:55 32.82719 35.15748 1435 ft 104 kts 72°
2026-04-24 19:55 32.82721 35.16637 1333 ft 120 kts 101°
2026-04-24 19:56 32.82461 35.17603 1175 ft 121 kts 101°
2026-04-24 19:56 32.82239 35.18530 1154 ft 113 kts 103°
2026-04-24 19:56 32.82064 35.19417 1090 ft 109 kts 96°
2026-04-24 19:56 32.81938 35.20319 1049 ft 112 kts 94°
2026-04-24 19:57 32.81811 35.21217 1049 ft 108 kts 92°
2026-04-24 19:57 32.81655 35.22073 963 ft 112 kts 110°
2026-04-24 19:57 32.81354 35.22800 1264 ft 98 kts 114°
2026-04-24 19:57 32.81405 35.23617 1323 ft 104 kts 72°
2026-04-24 19:58 32.81643 35.24433 1454 ft 107 kts 65°
2026-04-24 19:58 32.81932 35.25216 1659 ft 87 kts 64°
2026-04-24 19:58 32.82142 35.25838 1752 ft 76 kts 70°
2026-04-24 19:58 32.82409 35.26324 1786 ft 76 kts 49°
2026-04-24 19:59 32.82802 35.26826 1738 ft 85 kts 45°
2026-04-24 19:59 32.83145 35.27446 1632 ft 102 kts 71°
2026-04-24 19:59 32.83672 35.27456 1805 ft 79 kts
2026-04-24 19:59 32.83219 35.27682 1684 ft 125 kts 130°
2026-04-24 20:00 32.83442 35.27611 1912 ft 113 kts 231°
2026-04-24 20:00 32.83109 35.28078 1957 ft 107 kts 59°
2026-04-24 20:00 32.83424 35.28856 2205 ft 104 kts 60°
2026-04-24 20:00 32.83734 35.29634 2440 ft 104 kts 60°
2026-04-24 20:01 32.84055 35.30408 2673 ft 106 kts 60°
2026-04-24 20:01 32.84360 35.31196 2918 ft 105 kts 59°
2026-04-24 20:01 32.84685 35.31980 3117 ft 107 kts 59°
2026-04-24 20:01 32.84959 35.32809 3320 ft 113 kts 81°
2026-04-24 20:02 32.84954 35.33422 2960 ft 90 kts 80°
2026-04-24 20:02 32.84951 35.34810 1975 ft 107 kts 83°
2026-04-24 20:02 32.84999 35.35662 2083 ft 101 kts 79°
2026-04-24 20:02 32.85007 35.36491 2212 ft 105 kts 91°
2026-04-24 20:03 32.85104 35.37358 2273 ft 104 kts 73°
2026-04-24 20:03 32.85227 35.38187 2448 ft 103 kts 76°
2026-04-24 20:03 32.85370 35.39079 2187 ft 127 kts 76°
2026-04-24 20:03 32.85534 35.40161 1883 ft 126 kts 75°
2026-04-24 20:04 32.85690 35.41123 1709 ft 117 kts 75°
2026-04-24 20:04 32.85847 35.42002 1656 ft 99 kts 71°
2026-04-24 20:04 32.86034 35.42783 1568 ft 97 kts 71°
2026-04-24 20:04 32.86176 35.43531 1689 ft 88 kts 74°
2026-04-24 20:05 32.86323 35.44270 1645 ft 101 kts 71°
2026-04-24 20:05 32.86513 35.45115 1612 ft 106 kts 72°
2026-04-24 20:05 32.86707 35.45962 1606 ft 107 kts 71°
2026-04-24 20:05 32.86865 35.46828 1593 ft 107 kts 75°
2026-04-24 20:06 32.87019 35.47709 1526 ft 110 kts 75°
2026-04-24 20:06 32.87175 35.48599 1447 ft 110 kts 75°
2026-04-24 20:06 32.87334 35.49486 1425 ft 109 kts 75°
2026-04-24 20:06 32.87444 35.50372 1424 ft 107 kts 89°
2026-04-24 20:07 32.87368 35.50949 1443 ft 107 kts 97°
2026-04-24 20:07 32.87351 35.52123 1338 ft 112 kts 58°
2026-04-24 20:07 32.88005 35.52649 961 ft 126 kts 10°
2026-04-24 20:07 32.88804 35.52870 942 ft 107 kts 22°
2026-04-24 20:08 32.89440 35.53257 1137 ft 101 kts 28°
2026-04-24 20:08 32.90064 35.53674 1243 ft 105 kts 28°
2026-04-24 20:08 32.90725 35.54127 1314 ft 112 kts 28°
2026-04-24 20:08 32.91396 35.54566 1494 ft 107 kts 27°
2026-04-24 20:09 32.92033 35.55002 1699 ft 104 kts 28°
2026-04-24 20:09 32.92657 35.55425 1885 ft 105 kts 28°
2026-04-24 20:09 32.93303 35.55866 1985 ft 110 kts 30°
2026-04-24 20:09 32.93957 35.56429 1898 ft 118 kts 36°
2026-04-24 20:10 32.94587 35.57008 2018 ft 112 kts 34°
2026-04-24 20:10 32.95080 35.57642 1942 ft 100 kts 51°
2026-04-24 20:10 32.95603 35.58076 1709 ft 70 kts 25°
2026-04-24 20:10 32.96012 35.58263 1666 ft 66 kts
2026-04-24 20:11 32.96434 35.58244 1501 ft 55 kts 352°
2026-04-24 20:11 32.96772 35.58097 1313 ft 48 kts 326°
2026-04-24 20:11 32.97032 35.57913 1198 ft 43 kts 329°
2026-04-24 20:11 32.97312 35.57715 1119 ft 51 kts 331°
2026-04-24 20:12 32.97624 35.57508 967 ft 48 kts 332°
2026-04-24 20:12 32.97866 35.57345 898 ft 35 kts 331°
2026-04-24 20:12 32.98000 35.57264 896 ft 7 kts 255°
2026-04-24 20:12 32.97914 35.57309 896 ft 18 kts 162°
2026-04-24 20:13 32.97822 35.57356 895 ft 8 kts 201°
2026-04-24 20:13 32.97821 35.57298 892 ft 3 kts 17°
2026-04-24 20:13 32.97824 35.57311 892 ft 0 kts 126°